COSMOS 2544 (759)

Last updated on Fri Apr 25 2025 00:03:09 GMT+0000 (Coordinated Universal Time)

1 44850U 19088A 25113.97890866 .00000060 00000+0 00000+0 0 9996 2 44850 65.3378 87.7450 0015118 262.4815 97.3390 2.13101954 41765
UTC large
Height (km)
Speed (km/s)
/
Latitude / Longitude
Inclination (degrees)
Orbital Period (minutes)
Azimuth
Elevation
Range (km)
Doppler Factor

Next 0 passes for location: London (51.5072 / 0.1276)

Sorry there are no passes over London.